Weather History for Sheboygan, WI

Change the Weather History Date:

Monday, March 31, 2014

  Actual Average Record
Temperature  
Mean Temperature 40 °F -  
Max Temperature 50 °F 46 °F 73 °F (1999)
Min Temperature 30 °F 30 °F 5 °F (1969)
Degree Days  
Heating Degree Days 25    
Moisture  
Dew Point 33 °F    
Average Humidity 72    
Maximum Humidity 100    
Minimum Humidity 52    
Precipitation  
Precipitation 0.00 in - - ()
Sea Level Pressure  
Sea Level Pressure 29.89 in    
Wind  
Wind Speed 9 mph (SSE)    
Max Wind Speed 21 mph    
Max Gust Speed 31 mph    
Visibility 10 miles    
Events Thunderstorm    
Averages and records for this station are not official NWS values.
T = Trace of Precipitation, MM = Missing Value Source: NWS Daily Summary

Daily Weather History Graph

Daily Weather History Graph

Search for Another Location

Airport:

Trip Planner

Search our weather history database for the weather conditions in past years. The results will help you decide how hot, cold, wet, or windy it might be!

Date:

Astronomy

Mar. 31, 2014 Rise Set
Actual Time 6:34 AM CDT 7:17 PM CDT
Civil Twilight 6:05 AM CDT 7:46 PM CDT
Nautical Twilight 5:31 AM CDT 8:20 PM CDT
Astronomical Twilight 4:55 AM CDT 8:56 PM CDT
Moon 6:56 AM CDT (3/31) 8:38 PM CDT (3/31)
Length of Visible Light 13h 40m
Length of Day
12h 42m
New Moon, 1% of the Moon is Illuminated
Mar 31
New Moon
Apr 7
First Quarter
Apr 15
Full
Apr 22
Last Quarter
Apr 29
New

Hourly Weather History & Observations

Time (CDT) Temp. Windchill Dew Point Humidity Pressure Visibility Wind Dir Wind Speed Gust Speed Precip Events Conditions
12:53 AM 32.0 °F 28.7 °F 28.9 °F 88% 30.06 in 7.0 mi ENE 3.5 mph - N/A   Clear
1:53 AM 30.0 °F - 28.9 °F 96% 30.07 in 6.0 mi Calm Calm - N/A   Clear
2:53 AM 30.9 °F - 30.9 °F 100% 30.05 in 6.0 mi Calm Calm - N/A   Partly Cloudy
3:53 AM 35.1 °F 31.0 °F 32.0 °F 89% 30.05 in 10.0 mi SSE 4.6 mph - N/A   Mostly Cloudy
4:53 AM 36.0 °F 32.1 °F 32.0 °F 86% 30.04 in 9.0 mi SE 4.6 mph - N/A   Mostly Cloudy
5:53 AM 37.0 °F 32.4 °F 33.1 °F 86% 30.04 in 10.0 mi SSE 5.8 mph - N/A   Mostly Cloudy
6:53 AM 37.0 °F 31.0 °F 33.1 °F 86% 30.03 in 8.0 mi SSE 8.1 mph - N/A   Overcast
7:53 AM 39.0 °F 32.8 °F 33.1 °F 79% 30.02 in 10.0 mi SSE 9.2 mph - N/A   Mostly Cloudy
8:53 AM 41.0 °F 33.5 °F 33.1 °F 73% 30.00 in 10.0 mi SSE 13.8 mph 19.6 mph N/A   Partly Cloudy
9:53 AM 44.1 °F 37.4 °F 36.0 °F 73% 30.00 in 10.0 mi SSE 13.8 mph 23.0 mph N/A   Clear
10:53 AM 45.0 °F 37.1 °F 36.0 °F 71% 29.98 in 10.0 mi South 19.6 mph 26.5 mph N/A   Clear
11:53 AM 45.0 °F 38.5 °F 36.0 °F 71% 29.97 in 10.0 mi SSE 13.8 mph 25.3 mph N/A   Scattered Clouds
12:53 PM 44.1 °F 35.7 °F 35.1 °F 71% 29.95 in 10.0 mi SSE 20.7 mph 31.1 mph N/A   Clear
1:53 PM 43.0 °F 35.1 °F 34.0 °F 71% 29.90 in 10.0 mi SSE 17.3 mph 29.9 mph N/A   Clear
2:53 PM 46.9 °F - 34.0 °F 61% 29.86 in 10.0 mi SSE 13.8 mph 29.9 mph N/A   Clear
3:53 PM 50.0 °F - 33.1 °F 52% 29.82 in 10.0 mi SSE 18.4 mph 26.5 mph N/A   Clear
4:53 PM 48.0 °F - 33.1 °F 56% 29.79 in 10.0 mi South 15.0 mph 23.0 mph N/A   Scattered Clouds
5:53 PM 48.0 °F - 33.1 °F 56% 29.77 in 10.0 mi SSE 15.0 mph 26.5 mph N/A   Overcast
6:53 PM 48.0 °F - 32.0 °F 54% 29.75 in 10.0 mi South 18.4 mph 29.9 mph N/A   Overcast
7:53 PM 46.9 °F - 33.1 °F 59% 29.73 in 10.0 mi SSE 18.4 mph 26.5 mph N/A   Overcast
8:53 PM 48.0 °F - 34.0 °F 58% 29.72 in 10.0 mi SSE 16.1 mph 27.6 mph N/A   Overcast
9:53 PM 46.9 °F - 34.0 °F 61% 29.72 in 10.0 mi South 17.3 mph 27.6 mph N/A   Overcast
10:41 PM 45.0 °F 38.2 °F 35.1 °F 68% 29.69 in 10.0 mi SSE 15.0 mph 25.3 mph N/A Thunderstorm Thunderstorm
10:51 PM 44.6 °F 38.1 °F 35.6 °F 71% 29.69 in 10.0 mi SSE 13.8 mph - N/A   Overcast
10:53 PM 44.1 °F 37.4 °F 35.1 °F 71% 29.70 in 10.0 mi SSE 13.8 mph - N/A   Overcast
11:53 PM 43.0 °F 36.0 °F 34.0 °F 71% 29.67 in 10.0 mi SSE 13.8 mph 20.7 mph N/A   Partly Cloudy